User: anonymous   Login
Location: Unspecified
(0.0000°N, 0.0000°E)
Time: 23:48:38
(UTC+00:00)
Language:

HORYU 4 - Orbit

View from above orbital plane
View from above orbital plane
View from above satellite
View from above satellite

Ground track
Ground track

The orbit data is extracted from the following two-line orbital elements,

1 41340U 16012D   24201.18458956  .00019550  00000-0  94721-3 0  9993
2 41340  31.0016 126.9260 0010457 295.7931  64.1630 15.17323087463015
Epoch (UTC): 19 July 2024 04:25:48
Eccentricity: 0.0010457
inclination: 31.0016°
perigee height: 507 km
apogee height: 521 km
right ascension of ascending node: 126.9260°
argument of perigee: 295.7931°
revolutions per day: 15.17323087
mean anomaly at epoch: 64.1630°
orbit number at epoch: 46301

The dashed part of the orbit path shows where the satellite is in the earth's shadow,  

DLR